Weather History for Amsterdam Airport Schiphol, Netherlands

Change the Weather History Date:

Saturday, July 20, 2013

  Actual Average Record
Temperature  
Mean Temperature 67 °F -  
Max Temperature 71 °F 69 °F - ()
Min Temperature 63 °F 55 °F - ()
Cooling Degree Days 2    
Growing Degree Days 17 (Base 50)    
Moisture  
Dew Point 59 °F    
Average Humidity 77    
Maximum Humidity 88    
Minimum Humidity 56    
Precipitation  
Precipitation 0.00 in - - ()
Sea Level Pressure  
Sea Level Pressure 30.20 in    
Wind  
Wind Speed 7 mph ()    
Max Wind Speed 12 mph    
Max Gust Speed -    
Visibility 7.4 miles    
Events Rain    
T = Trace of Precipitation, MM = Missing Value Source: Averaged Metar Reports

Daily Weather History Graph

Daily Weather History Graph

Search for Another Location

Airport:

Trip Planner

Search our weather history database for the weather conditions in past years. The results will help you decide how hot, cold, wet, or windy it might be!

Date:

Astronomy

Jul. 20, 2013 Rise Set
Actual Time 5:43 AM CEST 9:49 PM CEST
Civil Twilight 4:58 AM CEST 10:34 PM CEST
Nautical Twilight 3:53 AM CEST 11:38 PM CEST
Astronomical Twilight 2:19 AM CEST 1:14 AM CEST
Moon 7:36 PM CEST (7/20) 3:08 AM CEST (7/20)
Length of Visible Light 17h 35m
Length of Day
16h 06m
Waxing Gibbous, 92% of the Moon is Illuminated
Jul 20
Waxing Gibbous
Jul 22
Full
Jul 29
Last Quarter
Aug 6
New
Aug 14
First Quarter

Hourly Weather History & Observations

Time (CEST) Temp. Dew Point Humidity Pressure Visibility Wind Dir Wind Speed Gust Speed Precip Events Conditions
12:25 AM 64.4 °F 59.0 °F 83% 30.24 in - North 8.1 mph - N/A   Clear
12:55 AM 64.4 °F 59.0 °F 83% 30.24 in 6.2 mi North 9.2 mph - N/A   Mostly Cloudy
1:25 AM 64.4 °F 59.0 °F 83% 30.24 in 6.2 mi North 8.1 mph - N/A   Mostly Cloudy
1:55 AM 64.4 °F 59.0 °F 83% 30.24 in 6.2 mi NNE 8.1 mph - N/A   Mostly Cloudy
2:00 AM 65 °F 60 °F 78% 30.25 in 12 mi NNE 8.9 mph - -   Partly Cloudy
2:25 AM 64.4 °F 60.8 °F 88% 30.24 in 6.2 mi NNE 6.9 mph - N/A   Mostly Cloudy
2:55 AM 64.4 °F 60.8 °F 88% 30.24 in 6.2 mi North 5.8 mph - N/A   Mostly Cloudy
3:25 AM 64.4 °F 60.8 °F 88% 30.21 in 6.2 mi North 5.8 mph - N/A   Mostly Cloudy
3:55 AM 64.4 °F 60.8 °F 88% 30.21 in 6.2 mi North 5.8 mph - N/A   Mostly Cloudy
4:25 AM 64.4 °F 59.0 °F 83% 30.21 in 6.2 mi NNE 5.8 mph - N/A   Mostly Cloudy
4:55 AM 64.4 °F 59.0 °F 83% 30.21 in 6.2 mi NNE 8.1 mph - N/A   Mostly Cloudy
5:00 AM 64 °F 59 °F 79% 30.22 in 14 mi NNE 6.7 mph - -   Overcast
5:25 AM 64.4 °F 59.0 °F 83% 30.21 in 6.2 mi North 5.8 mph - N/A   Mostly Cloudy
5:55 AM 64.4 °F 59.0 °F 83% 30.21 in 6.2 mi North 8.1 mph - N/A   Mostly Cloudy
6:25 AM 64.4 °F 59.0 °F 83% 30.21 in 6.2 mi NNE 10.4 mph - N/A   Mostly Cloudy
6:55 AM 64.4 °F 57.2 °F 77% 30.21 in 6.2 mi North 11.5 mph - N/A   Mostly Cloudy
7:25 AM 64.4 °F 59.0 °F 83% 30.21 in 6.2 mi North 8.1 mph - N/A   Mostly Cloudy
7:55 AM 64.4 °F 59.0 °F 83% 30.21 in 6.2 mi North 9.2 mph - N/A   Mostly Cloudy
8:00 AM 64 °F 58 °F 76% 30.23 in 13 mi North 8.9 mph - -   Partly Cloudy
8:25 AM 64.4 °F 59.0 °F 83% 30.21 in 6.2 mi NNE 8.1 mph - N/A   Mostly Cloudy
8:55 AM 64.4 °F 59.0 °F 83% 30.21 in 6.2 mi NNE 9.2 mph - N/A   Mostly Cloudy
9:25 AM 64.4 °F 59.0 °F 83% 30.21 in 6.2 mi NNE 9.2 mph - N/A   Mostly Cloudy
9:55 AM 64.4 °F 59.0 °F 83% 30.21 in 6.2 mi NNE 8.1 mph - N/A   Mostly Cloudy
10:25 AM 64.4 °F 59.0 °F 83% 30.21 in 6.2 mi NNE 8.1 mph - N/A Rain Light Rain
10:55 AM 64.4 °F 59.0 °F 83% 30.21 in 6.2 mi NNE 6.9 mph - N/A   Mostly Cloudy
11:00 AM 65 °F 60 °F 77% 30.24 in 14 mi NNE 6.7 mph - - Rain Rain
11:25 AM 64.4 °F 59.0 °F 83% 30.21 in 6.2 mi NNE 6.9 mph - N/A Rain Light Rain
11:55 AM 66.2 °F 59.0 °F 78% 30.21 in 6.2 mi NNE 8.1 mph - N/A   Mostly Cloudy
12:25 PM 66.2 °F 60.8 °F 83% 30.21 in 6.2 mi NNE 9.2 mph - N/A   Mostly Cloudy
12:55 PM 68.0 °F 59.0 °F 73% 30.21 in 6.2 mi North 10.4 mph - N/A   Mostly Cloudy
1:25 PM 68.0 °F 57.2 °F 68% 30.21 in 6.2 mi NNE 8.1 mph - N/A   Mostly Cloudy
1:55 PM 68.0 °F 57.2 °F 68% 30.21 in 6.2 mi ENE 11.5 mph - N/A   Mostly Cloudy
2:00 PM 67 °F 58 °F 66% 30.22 in 19 mi ENE 11.2 mph - -   Partly Cloudy
2:25 PM 68.0 °F 57.2 °F 68% 30.18 in 6.2 mi ENE 11.5 mph - N/A   Mostly Cloudy
2:55 PM 68.0 °F 59.0 °F 73% 30.18 in 6.2 mi ENE 9.2 mph - N/A   Mostly Cloudy
3:25 PM 68.0 °F 59.0 °F 73% 30.18 in 6.2 mi NE 9.2 mph - N/A   Mostly Cloudy
3:55 PM 69.8 °F 57.2 °F 64% 30.18 in 6.2 mi ENE 8.1 mph - N/A   Mostly Cloudy
4:25 PM 69.8 °F 57.2 °F 64% 30.18 in 6.2 mi ENE 8.1 mph - N/A   Mostly Cloudy
4:55 PM 69.8 °F 59.0 °F 68% 30.18 in 6.2 mi ENE 9.2 mph - N/A   Mostly Cloudy
5:00 PM 69 °F 59 °F 61% 30.19 in 13 mi NE 8.9 mph - -   Overcast
5:25 PM 69.8 °F 57.2 °F 64% 30.18 in 6.2 mi ENE 8.1 mph - N/A   Mostly Cloudy
5:55 PM 69.8 °F 57.2 °F 64% 30.18 in 6.2 mi NE 8.1 mph - N/A   Scattered Clouds
6:25 PM 71.6 °F 57.2 °F 60% 30.15 in 6.2 mi ENE 8.1 mph - N/A   Partly Cloudy
6:55 PM 71.6 °F 57.2 °F 60% 30.15 in 6.2 mi ENE 8.1 mph - N/A   Partly Cloudy
7:25 PM 71.6 °F 57.2 °F 60% 30.15 in 6.2 mi ENE 9.2 mph - N/A   Partly Cloudy
7:55 PM 69.8 °F 57.2 °F 64% 30.15 in 6.2 mi ENE 6.9 mph - N/A   Partly Cloudy
8:00 PM 70 °F 58 °F 56% 30.17 in 18 mi ENE 6.7 mph - -   Partly Cloudy
8:25 PM 69.8 °F 59.0 °F 68% 30.15 in - ENE 6.9 mph - N/A   Clear
8:55 PM 69.8 °F 59.0 °F 68% 30.15 in - NNE 5.8 mph - N/A   Clear
9:25 PM 68.0 °F 59.0 °F 73% 30.15 in - NNE 5.8 mph - N/A   Clear
9:55 PM 66.2 °F 59.0 °F 78% 30.15 in - NE 5.8 mph - N/A   Clear
10:25 PM 66.2 °F 60.8 °F 83% 30.15 in 6.2 mi NNE 6.9 mph - N/A   Partly Cloudy
10:55 PM 66.2 °F 62.6 °F 88% 30.15 in 6.2 mi NNE 8.1 mph - N/A   Partly Cloudy
11:00 PM 67 °F 63 °F 84% 30.17 in 8 mi NNE 8.9 mph - -  
11:25 PM 66.2 °F 62.6 °F 88% 30.15 in 6.2 mi NNE 8.1 mph - N/A   Partly Cloudy
11:55 PM 66.2 °F 62.6 °F 88% 30.15 in 6.2 mi NE 8.1 mph - N/A   Partly Cloudy